カタログに戻る

YZ-1 R/B

運用中MEO
NORAD 58656·ROCKET BODY·🇨🇳 China

打ち上げ Dec 26, 2023 から Xichang Satellite Launch Center

Loading…

次のパス (今後24時間)

TLE

最新Source: Space-Track

元期: Sep 11, 2026, 23:29 UTC

1 58656U 23207C   26254.97896163 -.00000030  00000-0  00000-0 0  9996
2 58656  55.9188  61.8922 0025711 348.1597  11.8003  1.79266045 17763

AllMySatでYZ-1 R/Bをリアルタイム追跡

Download on the App Store